Contact Us:
Email: info@sawbill.com
Phone: (218)663-7150
Fax: (218)663-7980
Mail: 4620 Sawbill Trail
Box 2129
Tofte, MN 55615


Powered by
Movable Type 3.15
 
Sawbill Weather History Archives: February 2017
Current Sawbill Weather History | « January 2017 | March 2017 »


Date

High
Temperature

Low
Temperature

Barometric
Pressure

Relative
Humidity 7AM

9 AM
Temperature

Moisture

Snow

2/28/17 29 2 30.00 49% 25 0"
2/27/17 29 2 30.00 78% 25 .19" 2.5"
2/26/17 19 -1 29.90 40% 2 Trace Trace
2/25/17 22 9 29.84 65% 17 Trace Trace
2/24/17 17 8 29.94 45% 9 0"
2/23/17 30 10 30.20 47% 10 0"
2/22/17 37 27 29.96 59% 27 Trace Trace
2/21/17 45 33 29.86 64% 34 0"
2/20/17 42 33 29.60 92% 33 .72"
2/19/17 42 31 30.02 69% 37 0"
2/18/17 46 31 29.94 77% 32 0"
2/17/17 47 22 29.78 82% 35 0"
2/16/17 26 17 29.80 78% 22 0"
2/15/17 17 7 29.94 75% 17 0"
2/14/17 30 7 29.96 51% 7 0"
2/13/17 40 19 29.86 66% 28 0"
2/12/17 28 19 30.80 60% 21 Trace Trace
2/11/17 28 14 29.94 65% 20 .07" .5"
2/9/17 14 -2 29.78 79% 14 .3" 3.5"
2/8/17 8 -10 30.08 61% -8 Trace Trace
2/7/17 10 -1 30.02 61% -1 .2" 2"
2/6/17 12 4 30.00 68% 4 .58" 8"
2/5/17 12 3 30.28 66% 3 Trace Trace
2/4/17 22 5 30.24 64% 5 .08 1"
2/3/17 11 -7 30.04 60% 5 0
2/2/17 6 -7 30.14 60% -7 0
2/1/17 9 -5 30.40 60% -5 .26" 3"
 


Home I Trip Planning I Rentals and Outfitting I Reservations I Campgrounds I Sawbill Store I Sawbill News I Contact

© 1997 - 2017, Sawbill Canoe Outfitters, Inc. I Privacy Policy